Location: ???????
(55.4231°N, 38.5570°E)
Time: 13:46:12
(UTC+00:00)

Cosmos 1814 Rocket - Pass Details

Date: 05 August 2024
Orbit: 743 x 783 km, 74.1° (Epoch: 18 September)

Event Time Altitude Azimuth Distance (km) Brightness Sun altitude
Exits shadow 00:35:54 - 204° (SSW) 2,500 6.1 -7.9°
Reaches altitude 10° 00:36:20 10° 204° (SSW) 2,335 5.9 -7.9°
Maximum altitude 00:41:39 87° 116° (ESE) 794 4.1 -7.4°
Drops below altitude 10° 00:47:02 10° 28° (NNE) 2,355 8.0 -6.8°
Sets 00:49:26 0° 29° (NNE) 3,286 8.9 -6.6°
